Погода в Армавире

Погода в Армавире : погода сейчас, прогноз погоды и архив. Всё, что Вы хотите узнать о погоде в Армавире!

Поиск расширенной информации на нашем сайте:

Другие новости

Новости СМИ2

Главная страница сайта

Новости сайта

03.07.2017

Напоминаем, что на нашем специализированном сайте Метеоцентр.Азия вы можете получить высокодетализированные автоматические прогнозы погоды по пунктам России, СНГ и мира в авиационном формате (включающие направление и скорость ветра, видимость, явления погоды, количество и форму облачности, нижнюю и верхнюю границу облачности).


Погода в Армавире - сегодня

Время (UTC), дата Ветер
(°,м/с) 
Видим.   Явления Облачность Т
(°С)
Тd
(°С)
f(%) Тe
(°С)
Pmin
(гПа)
dP
(гПа)
Po
(мм)
O2
(г/м3)
Тmin Tmax R s Состояние
почвы
06 17.06.18 120 (ЮВ) 10 км    10/10 600 м 
[Sc]
+22.5 +13.3 56 +29  1009  0.5  743  274           
09 17.06.18 080 (В) 10 км  слаб. ливневой дождь  10/8 600 м кучево-дожд., средняя 
[Cb cap|Ac As]
+18.4 +14.6 79 +28  1010.6  1.3  744  278           
12 17.06.18 070 (В) 10 км  {ливн. осадки}  10/10 600 м 
[Sc]
+21.4 +13.9 62 +28  1009.2  -1.2  743  275           
15 17.06.18 140 (ЮВ) 10 км    10/3 600 м средняя 
[Sc|Ac und]
+21.6 +15.2 67 +31  1009.5  0.4  743  274    +22.6     
18 17.06.18 090 (В) 10 км    10/3 600 м средняя, верхняя 
[Sc|Ac As|Ci fib]
+19.1 +12.7 66 +26  1009.5  -0.2  743  277           
21 17.06.18 100 (В) 10 км    10/10 600 м 
[Sc]
+18.6 +13.1 70 +26  1009.1  -0.5  743  278           
00 18.06.18 140 (ЮВ) 10 км  слаб. ливневой дождь  10/10 600 м кучево-дожд. 
[Cb cap]
+17.7 +14.6 82 +27  1008.5  -0.6  743  278           
03 18.06.18 110 (В) 10 км  {ливн. осадки}  10/10 600 м 
[Sc]
+18.2 +14.5 79 +28  1008.3  -0.2  742  277  +16.6         
06 18.06.18 100 (В) 10 км  {ливн. осадки}  8/0 средняя 
[Ac trans]
+23.6 +12.3 49 +28  1007.8  0.1  742  273           
09 18.06.18 080 (В) 7-13{13}  10 км    9/0 средняя, верхняя 
[Ac trans|Cs]
+25.2 +10.3 39 +27  1008  0.2  742  272           
12 18.06.18 100 (В) 5{13}  10 км    9/3 600 м средняя, верхняя 
[Sc|Ac trans|Ci fib]
+25.7 +13.1 46 +31  1008  0.1  743  271           
15 18.06.18 100 (В) 3{12}  10 км    10/0 верхняя 
[Cs]
+24.8 +6.9 32 +25  1008.9  0.8  743  273    +26.3       
18 18.06.18 090 (В) 10 км    3/0 верхняя 
[Ci fib]
+20.2 +12.8 62 +26  1009.6  0.4  743  276           
21 18.06.18 тихо ()   10 км    ясно 
+15.3 +10.1 71 +17  1009.5  -0.4  743  282           
00 19.06.18 060 (СВ) 10 км    ясно 
+12 +10.1 88 +14  1010.4  0.7  744  285           
03 19.06.18 тихо ()   10 км    10/6 600 м средняя, верхняя 
[Sc|Ac trans|Ci fib]
+15.4 +11.2 76 +18  1011.5  1.3  745  282  +11.5        сухая 
06 19.06.18 090 (В) 10 км    8/0 верхняя 
[Ci]
+25.8 +9.8 36 +27  1011.4  0.5  745  273           
09 19.06.18 100 (В) 3{10}  10 км    5/1 600 м верхняя 
[Cu hum|Ci fib]
+29.3 +4.9 21 +29  1011.3  0.1  745  270           
12 19.06.18 080 (В) 10 км    4/1 600 м верхняя 
[Cu hum|Ci fib]
+30.5 +4.5 19 +31  1010.7  -0.5  745  269           
15 19.06.18 070 (В) 10 км    4/3 600 м верхняя 
[Cu hum|Ci fib]
+30.2 +4.5 20 +30  1010.6  -0.2  745  269    +30.7       
18 19.06.18 тихо ()   10 км    3/0 верхняя 
[Ci fib]
+20.6 +9.6 49 +21  1012.4  1.2  745  278           
21 19.06.18 тихо ()   10 км    ясно 
+15 +11.1 77 +18  1013.1  0.3  746  283           
00 20.06.18 130 (ЮВ) 10 км    ясно 
+13.5 +10.6 83 +17  1013.6  0.4  746  284           
03 20.06.18 140 (ЮВ) 10 км    3/0 верхняя 
[Ci fib]
+14.4 +10.3 76 +17  1014.5  0.9  747  284  +12.5        сухая 
06 20.06.18 130 (ЮВ) 10 км    ясно 
+24.3 +13.1 50 +30  1014.2  0.4  747  274           
Время (UTC), дата Ветер
(°,м/с) 
Видим.   Явления Облачность Т
(°С)
Тd
(°С)
f(%) Тe
(°С)
Pmin
(гПа)
dP
(гПа)
Po
(мм)
O2
(г/м3)
Тmin Tmax R s Состояние
почвы

Для получения пояснительной информации подведите курсор к названию столбца.

ПОГОДА в Армавире - архив

Всё, что Вы хотите узнать о погоде в Армавире - удобно и подробно!

Выберите нужную дату (начиная с 1 января 2015* года) и нажмите кнопку "Найти".
Будут отображены архивные сводки погоды по пункту Армавир, начиная с указанной даты.


Отображать данные в формате CSV (для использования в таблицах Excel)


Внимание! Наш архив погоды предназначен исключительно для личного некоммерческого использования в познавательных целях. Если Вам необходимы официальные справки о состоянии погоды (для производственных, юридических, коммерческих и т.п. целей), обращайтесь в органы Росгидромета.

*Примечание: данная дата относится к архиву по метеостанциям СССР (Россия, СНГ, Балтия).
Архив по метеостанциям Зарубежной Европы и Азии (кроме Китая) хранится 10 дней, по другим регионам земного шара (Китай, Африка, Америка, Австралия, Океания) - 1 день.

Армавир - район местоположения метеостанции


Название, широта, долгота, высота метеостанции:
Армавир 45°ш. 41.1°д. 159 м над ур. моря [Российская Федерация]

Дополнительная информация

В oтличие oт бoльшинства пoгoдных сайтoв мы публикуем пoдрoбную метеoинфoрмацию в детальнoм прoфессиoнальнoм фoрмате.

Характеристики температуры и влажнoсти вoздуха измеряются на высoте 2 м в тени вдали oт зданий и деревьев.
Скoрoсть ветра измеряется на высoте 10 м (на урoвне рoста челoвека скoрoсть ветра ниже в 1.5-2 раза). Если метеoстанция нахoдится в гoрoде или в лесу, тo скoрoсть ветра занижена на 2-4 м/с пo сравнению с oткрытым местoм. Скoрoсть ветра над акватoриями крупных рек и oзёр, а также на вершинах хoлмoв на 2-5 м/с выше, чем в oбычных услoвиях.
Атмoсфернoе давление в разных тoчках местнoсти мoжет значительнo oтличаться oт давления на метеoстанции, в зависимoсти oт услoвий рельефа (при пoдъёме на 10 м давление пoнижается примернo на 1 мм рт.ст.).